This demonstration page uses our WeatherBlox Daily Observations layout. Learn more.

Left ArrowRight Arrow

39.01783, -85.05884

Hourly Observations for December 16, 2020

Temp ( °F °C ) Dew Point ( °F °C ) Humidity (%) Winds ( mph kmh ) Pressure ( in mb ) Visibility ( mi km ) Precip ( " mm )
12:52 am 00:52 Cloudy 31 -0.6 19 -7.2 61 61 E 10 17 30.05 1018 10 16 N/A
1:52 am 01:52 Cloudy 32 undefined 19 -7.2 59 59 ENE 7 11 30.05 1018 10 16 N/A
2:52 am 02:52 Cloudy with Light Snow 32 undefined 21 -6.1 64 64 ENE 5 7 30.04 1017 10 16 0.00 0.00
3:52 am 03:52 Cloudy with Light Snow 32 undefined 22 -5.6 66 66 E 8 13 30.03 1017 9 14 0.00 0.00
4:52 am 04:52 Cloudy with Light Snow 31 -0.6 23 -5 72 72 E 10 17 29.99 1016 6 10 0.01 0.25
5:52 am 05:52 Cloudy with Drizzle 30 -1.1 24 -4.4 79 79 E 10 17 29.95 1014 7 11 0.01 0.25
6:17 am 06:17 Cloudy with Drizzle 30 -1.1 25 -3.9 82 82 ESE 7 11 29.99 1016 8 13 0.00 0.00
6:26 am 06:26 Cloudy 31 -0.6 25 -3.9 79 79 E 7 11 30.00 1016 6 10 0.00 0.00
6:52 am 06:52 Cloudy 31 -0.6 25 -3.9 79 79 ESE 7 11 29.96 1015 4 6 0.01 0.25
7:00 am 07:00 Cloudy with Light Snow 30 -1.1 26 -3.3 85 85 ESE 8 13 30.00 1016 3 4 0.01 0.25
7:13 am 07:13 Cloudy with Light Snow 30 -1.1 26 -3.3 85 85 ESE 10 17 29.99 1016 2 2 0.02 0.51
7:26 am 07:26 Cloudy with Light Snow 30 -1.1 27 -2.8 88 88 E 7 11 29.98 1015 2 3 0.03 0.76
7:36 am 07:36 Cloudy with Light Snow 30 -1.1 27 -2.8 88 88 ESE 9 15 29.98 1015 3 5 0.03 0.76
7:52 am 07:52 Cloudy with Mist and Fog 30 -1.1 27 -2.8 88 88 ESE 7 11 29.95 1014 3 5 0.03 0.76
8:12 am 08:12 Cloudy with Light Snow 31 -0.6 27 -2.8 85 85 ESE 7 11 29.97 1015 4 6 0.01 0.25
8:24 am 08:24 Cloudy with Light Snow 31 -0.6 27 -2.8 85 85 E 6 9 29.97 1015 4 6 0.01 0.25
8:48 am 08:48 Cloudy with Light Snow 30 -1 28 -2 93 93 ESE 7 11 29.98 1015 4 6 0.01 0.25
8:52 am 08:52 Cloudy with Light Snow 31 -0.6 28 -2.2 89 89 ESE 7 11 29.94 1014 3 5 0.02 0.51
9:09 am 09:09 Cloudy with Mist and Fog 32 undefined 28 -2.2 85 85 SE 9 15 29.98 1015 3 5 0.01 0.25
9:27 am 09:27 Cloudy with Light Snow 32 undefined 28 -2.2 85 85 SE 8 13 29.97 1015 4 6 0.02 0.51
9:52 am 09:52 Cloudy with Light Snow 32 undefined 29 -1.7 88 88 SE 10 17 29.93 1014 4 6 0.03 0.76
10:05 am 10:05 Cloudy with Light Snow 32 undefined 29 -1.7 88 88 SE 10 17 29.96 1014 4 6 0.00 0.00
10:30 am 10:30 Cloudy with Mist and Fog 33 0.6 30 -1.1 89 89 SE 5 7 29.96 1015 5 8 0.00 0.00
10:52 am 10:52 Cloudy with Mist and Fog 33 0.6 29 -1.7 85 85 ESE 6 9 29.93 1014 5 8 0.00 0.00
11:19 am 11:19 Cloudy with Mist and Fog 33 0.6 30 -1.1 89 89 ESE 5 7 29.95 1014 5 8 0.00 0.00
11:52 am 11:52 Cloudy with Light Snow 33 0.6 30 -1.1 89 89 ESE 5 7 29.91 1013 4 6 0.01 0.25
12:30 pm 12:30 Cloudy with Light Snow 33 0.6 31 -0.6 92 92 N N/A 29.91 1013 3 4 0.02 0.51
12:52 pm 12:52 Cloudy with Light Rain/Snow 34 1.1 31 -0.6 89 89 N N/A 29.87 1012 3 4 0.03 0.76
1:20 pm 13:20 Cloudy with Light Snow 34 1.1 32 undefined 92 92 SSE 3 6 29.90 1013 2 3 0.01 0.25
1:52 pm 13:52 Cloudy with Light Snow 35 1.7 32 undefined 89 89 N N/A 29.83 1010 2 3 0.01 0.25
2:52 pm 14:52 Cloudy with Mist and Fog 35 1.7 32 undefined 89 89 NNW 5 7 29.84 1011 2 3 0.00 0.00
3:52 pm 15:52 Cloudy with Mist and Fog 35 1.7 33 0.6 93 93 WNW 6 9 29.86 1011 2 2 N/A
4:05 pm 16:05 Cloudy with Mist and Fog 35 1.7 33 0.6 93 93 WNW 5 7 29.89 1012 2 2 N/A
4:17 pm 16:17 Cloudy with Mist and Fog 35 1.7 33 0.6 93 93 WNW 6 9 29.90 1013 1 1 N/A
4:34 pm 16:34 Cloudy with Mist and Fog 35 1.7 32 undefined 89 89 NNW 8 13 29.90 1013 1 2 N/A
4:52 pm 16:52 Mostly Cloudy with Fog 34 1.1 32 undefined 92 92 NNW 8 13 29.88 1012 1 2 N/A
5:52 pm 17:52 Mostly Cloudy with Fog 33 0.6 31 -0.6 92 92 NNW 10 17 29.89 1012 1 2 N/A
6:34 pm 18:34 Cloudy with Mist and Fog 33 0.6 31 -0.6 92 92 NW 8 13 29.94 1014 1 1 N/A
6:52 pm 18:52 Cloudy with Light Snow 33 0.6 31 -0.6 92 92 NW 8 13 29.91 1013 2 2 0.00 0.00
7:18 pm 19:18 Cloudy with Light Snow 32 undefined 31 -0.6 96 96 NW 8 13 29.96 1014 1 2 0.00 0.00
7:52 pm 19:52 Cloudy with Light Snow 32 undefined 30 -1.1 92 92 NW 9 15 29.92 1013 2 2 0.02 0.51
8:35 pm 20:35 Cloudy with Light Snow 32 undefined 30 -1.1 92 92 WNW 8 13 29.96 1014 2 3 0.00 0.00
8:52 pm 20:52 Cloudy with Light Snow 32 undefined 30 -1.1 92 92 WNW 9 15 29.93 1014 2 3 0.00 0.00
9:22 pm 21:22 Cloudy with Light Snow 32 undefined 30 -1.1 92 92 WNW 12 19 29.97 1015 4 6 0.00 0.00
9:40 pm 21:40 Cloudy with Mist and Fog 32 undefined 29 -1.7 88 88 WNW 10 17 29.98 1015 5 8 0.00 0.00
9:52 pm 21:52 Cloudy with Mist and Fog 32 undefined 29 -1.7 88 88 WNW 7 11 29.95 1014 5 8 0.00 0.00
10:10 pm 22:10 Cloudy with Mist and Fog 32 undefined 29 -1.7 88 88 W 8 13 29.99 1015 5 8 N/A
10:52 pm 22:52 Cloudy with Mist and Fog 31 -0.6 28 -2.2 89 89 W 10 17 29.96 1015 6 10 N/A
11:52 pm 23:52 Cloudy with Mist and Fog 31 -0.6 28 -2.2 89 89 W 12 19 29.97 1015 6 10 N/A

Powered by AerisWeather